Radiation Dose at Monitoring Post of Fukushima Daini Nuclear Power Station
Date,Time,MP-1(microSv/h),MP-2(microSv/h),MP-3(microSv/h),MP-4(microSv/h),MP-5(microSv/h),MP-6(microSv/h),MP-7(microSv/h),Wind Direction,Wind Velocity(m/s),Rain
2022/10/06,00:00,0.153,0.137,0.222,0.214,0.215,0.122,0.078,north-northwest,6.6,No
2022/10/06,00:10,0.153,0.138,0.223,0.215,0.213,0.122,0.078,north-northwest,6.6,No
2022/10/06,00:20,0.154,0.137,0.222,0.213,0.215,0.122,0.078,north-northwest,5.8,Yes
2022/10/06,00:30,0.154,0.138,0.221,0.215,0.214,0.121,0.079,north-northwest,6.0,No
2022/10/06,00:40,0.154,0.137,0.223,0.214,0.216,0.122,0.078,north-northwest,6.0,No
2022/10/06,00:50,0.154,0.138,0.223,0.214,0.214,0.122,0.077,north-northwest,5.8,Yes
2022/10/06,01:00,0.154,0.137,0.223,0.214,0.214,0.121,0.078,north-northwest,5.5,No
2022/10/06,01:10,0.155,0.137,0.223,0.214,0.214,0.122,0.078,north-northwest,6.1,Yes
2022/10/06,01:20,0.154,0.138,0.223,0.214,0.215,0.121,0.078,north-northwest,6.2,Yes
2022/10/06,01:30,0.153,0.138,0.223,0.213,0.215,0.123,0.078,northwest,5.4,No
2022/10/06,01:40,0.155,0.139,0.223,0.214,0.213,0.122,0.078,northwest,5.3,No
2022/10/06,01:50,0.154,0.138,0.223,0.213,0.216,0.122,0.078,north-northwest,5.2,No
2022/10/06,02:00,0.155,0.138,0.223,0.215,0.214,0.121,0.079,north-northwest,5.0,No
2022/10/06,02:10,0.154,0.139,0.224,0.215,0.216,0.121,0.078,north-northwest,4.7,No
2022/10/06,02:20,0.155,0.137,0.223,0.214,0.214,0.122,0.078,north-northwest,5.2,No
2022/10/06,02:30,0.154,0.139,0.222,0.214,0.216,0.122,0.078,north-northwest,6.1,No
2022/10/06,02:40,0.154,0.138,0.224,0.214,0.214,0.122,0.078,northwest,6.0,No
2022/10/06,02:50,0.155,0.138,0.222,0.216,0.215,0.123,0.079,north-northwest,6.1,No
2022/10/06,03:00,0.153,0.139,0.223,0.214,0.214,0.122,0.078,north-northwest,6.0,No
2022/10/06,03:10,0.155,0.138,0.225,0.214,0.214,0.122,0.078,north-northwest,5.5,No
2022/10/06,03:20,0.155,0.139,0.223,0.216,0.215,0.122,0.078,north-northwest,5.2,No
2022/10/06,03:30,0.155,0.139,0.224,0.214,0.214,0.122,0.078,north-northwest,5.2,No
2022/10/06,03:40,0.154,0.138,0.222,0.215,0.214,0.123,0.078,north-northwest,5.0,No
2022/10/06,03:50,0.154,0.138,0.223,0.214,0.213,0.123,0.078,north-northwest,5.7,No
2022/10/06,04:00,0.154,0.138,0.222,0.216,0.216,0.123,0.078,north-northwest,6.1,No
2022/10/06,04:10,0.154,0.139,0.222,0.214,0.213,0.123,0.079,north-northwest,5.9,No
2022/10/06,04:20,0.155,0.138,0.224,0.216,0.215,0.122,0.078,north-northwest,6.1,No
2022/10/06,04:30,0.155,0.138,0.224,0.214,0.215,0.122,0.079,northwest,7.0,No
2022/10/06,04:40,0.155,0.138,0.223,0.214,0.215,0.123,0.078,northwest,6.5,No
2022/10/06,04:50,0.154,0.139,0.224,0.216,0.215,0.122,0.078,northwest,6.4,No
2022/10/06,05:00,0.155,0.138,0.223,0.213,0.215,0.123,0.078,northwest,7.1,No
2022/10/06,05:10,0.155,0.139,0.224,0.214,0.216,0.122,0.078,northwest,7.3,No
2022/10/06,05:20,0.154,0.138,0.223,0.215,0.214,0.123,0.078,northwest,7.5,No
2022/10/06,05:30,0.154,0.138,0.223,0.214,0.216,0.122,0.078,northwest,7.2,No
2022/10/06,05:40,0.153,0.137,0.223,0.215,0.214,0.123,0.079,northwest,6.7,No
2022/10/06,05:50,0.155,0.138,0.222,0.215,0.215,0.122,0.079,northwest,6.7,No
2022/10/06,06:00,0.154,0.138,0.223,0.215,0.214,0.123,0.078,north-northwest,6.9,No
2022/10/06,06:10,0.155,0.138,0.223,0.213,0.214,0.122,0.078,northwest,7.0,No
2022/10/06,06:20,0.154,0.137,0.223,0.214,0.215,0.122,0.078,north-northwest,7.1,No
2022/10/06,06:30,0.155,0.139,0.223,0.215,0.215,0.122,0.078,north-northwest,7.0,No
2022/10/06,06:40,0.155,0.139,0.223,0.214,0.216,0.122,0.078,north-northwest,6.8,No
2022/10/06,06:50,0.153,0.138,0.224,0.214,0.214,0.122,0.078,northwest,7.5,No
2022/10/06,07:00,0.155,0.138,0.223,0.214,0.216,0.122,0.078,north-northwest,7.9,Yes
2022/10/06,07:10,0.155,0.138,0.224,0.215,0.214,0.122,0.078,north-northwest,6.2,No
2022/10/06,07:20,0.154,0.138,0.224,0.214,0.215,0.123,0.078,north-northwest,7.1,No
2022/10/06,07:30,0.155,0.139,0.222,0.215,0.214,0.122,0.078,north-northwest,6.8,No
2022/10/06,07:40,0.154,0.138,0.225,0.214,0.215,0.122,0.078,north-northwest,6.4,Yes
2022/10/06,07:50,0.154,0.139,0.222,0.214,0.214,0.121,0.077,north-northwest,5.9,No
2022/10/06,08:00,0.154,0.138,0.222,0.216,0.215,0.123,0.079,north-northwest,6.3,No
2022/10/06,08:10,0.154,0.139,0.223,0.214,0.215,0.122,0.078,north-northwest,6.6,No
2022/10/06,08:20,0.154,0.139,0.222,0.214,0.215,0.122,0.078,north-northwest,6.5,No
2022/10/06,08:30,0.155,0.138,0.223,0.214,0.215,0.122,0.078,north-northwest,7.0,No
2022/10/06,08:40,0.155,0.139,0.223,0.215,0.213,0.123,0.078,north-northwest,6.2,No
2022/10/06,08:50,0.155,0.138,0.224,0.215,0.214,0.122,0.079,north-northwest,6.0,Yes
2022/10/06,09:00,0.155,0.139,0.223,0.214,0.214,0.121,0.078,north-northwest,5.6,Yes
2022/10/06,09:10,0.154,0.138,0.222,0.213,0.216,0.122,0.078,north-northwest,5.0,Yes
2022/10/06,09:20,0.155,0.139,0.225,0.214,0.213,0.124,0.079,north-northwest,5.9,Yes
2022/10/06,09:30,0.156,0.140,0.226,0.218,0.218,0.126,0.080,northwest,5.5,Yes
2022/10/06,09:40,0.158,0.142,0.228,0.218,0.218,0.126,0.082,northwest,4.7,Yes
2022/10/06,09:50,0.159,0.144,0.228,0.220,0.218,0.127,0.082,northwest,4.4,Yes
2022/10/06,10:00,0.159,0.143,0.228,0.219,0.218,0.127,0.084,northwest,4.5,Yes
2022/10/06,10:10,0.161,0.144,0.230,0.220,0.219,0.129,0.084,northwest,4.8,Yes
2022/10/06,10:20,0.160,0.144,0.229,0.221,0.222,0.130,0.085,northwest,5.3,Yes
2022/10/06,10:30,0.164,0.147,0.232,0.222,0.221,0.131,0.087,northwest,5.6,Yes
2022/10/06,10:40,0.164,0.147,0.232,0.223,0.223,0.133,0.089,northwest,5.4,Yes
2022/10/06,10:50,0.163,0.149,0.231,0.223,0.222,0.133,0.089,north-northwest,5.3,Yes
2022/10/06,11:00,0.165,0.148,0.233,0.222,0.223,0.133,0.089,north-northwest,4.9,Yes
2022/10/06,11:10,0.163,0.149,0.230,0.224,0.224,0.133,0.089,northwest,4.6,Yes
2022/10/06,11:20,0.163,0.148,0.231,0.222,0.223,0.133,0.090,northwest,4.3,Yes
2022/10/06,11:30,0.164,0.147,0.232,0.222,0.224,0.133,0.090,northwest,3.0,Yes
2022/10/06,11:40,0.162,0.147,0.230,0.222,0.222,0.133,0.090,north-northwest,3.9,Yes
2022/10/06,11:50,0.163,0.146,0.230,0.221,0.223,0.133,0.090,northwest,3.8,Yes
2022/10/06,12:00,0.162,0.146,0.229,0.221,0.222,0.132,0.088,northwest,4.2,Yes
2022/10/06,12:10,0.160,0.146,0.228,0.220,0.220,0.130,0.088,north-northwest,4.0,Yes
2022/10/06,12:20,0.161,0.145,0.227,0.219,0.220,0.129,0.086,north-northwest,3.6,Yes
2022/10/06,12:30,0.157,0.142,0.225,0.219,0.218,0.128,0.086,northwest,3.2,Yes
2022/10/06,12:40,0.158,0.143,0.225,0.217,0.219,0.126,0.085,northwest,4.0,Yes
2022/10/06,12:50,0.156,0.142,0.226,0.216,0.217,0.126,0.084,northwest,3.8,Yes
2022/10/06,13:00,0.157,0.142,0.224,0.215,0.218,0.126,0.083,north-northwest,4.1,Yes
2022/10/06,13:10,0.156,0.141,0.225,0.215,0.216,0.125,0.082,northwest,4.2,Yes
2022/10/06,13:20,0.154,0.139,0.223,0.214,0.216,0.124,0.081,northwest,4.4,Yes
2022/10/06,13:30,0.155,0.140,0.222,0.213,0.216,0.123,0.081,northwest,5.1,Yes
2022/10/06,13:40,0.156,0.140,0.224,0.215,0.216,0.125,0.083,northwest,5.2,Yes
2022/10/06,13:50,0.157,0.141,0.224,0.215,0.217,0.125,0.083,northwest,5.2,Yes
2022/10/06,14:00,0.157,0.141,0.226,0.217,0.216,0.125,0.083,northwest,5.1,Yes
2022/10/06,14:10,0.157,0.142,0.224,0.217,0.219,0.126,0.084,northwest,5.6,Yes
2022/10/06,14:20,0.158,0.143,0.225,0.217,0.218,0.127,0.085,northwest,6.0,Yes
2022/10/06,14:30,0.159,0.143,0.227,0.218,0.219,0.126,0.083,north-northwest,6.0,Yes
2022/10/06,14:40,0.159,0.144,0.227,0.218,0.220,0.128,0.085,north-northwest,5.2,Yes
2022/10/06,14:50,0.160,0.145,0.227,0.219,0.219,0.128,0.086,northwest,6.0,Yes
2022/10/06,15:00,0.161,0.146,0.228,0.220,0.221,0.131,0.087,northwest,6.2,Yes
2022/10/06,15:10,0.163,0.148,0.230,0.220,0.222,0.132,0.089,northwest,6.2,Yes
2022/10/06,15:20,0.163,0.149,0.231,0.223,0.224,0.132,0.090,northwest,5.8,Yes
2022/10/06,15:30,0.163,0.147,0.230,0.221,0.224,0.133,0.090,northwest,5.8,Yes
2022/10/06,15:40,0.163,0.149,0.230,0.220,0.222,0.133,0.090,northwest,5.4,Yes
2022/10/06,15:50,0.164,0.149,0.231,0.222,0.224,0.134,0.091,northwest,5.6,Yes
2022/10/06,16:00,0.163,0.149,0.231,0.220,0.224,0.133,0.091,northwest,6.0,Yes
2022/10/06,16:10,0.163,0.149,0.230,0.221,0.223,0.133,0.091,northwest,5.7,Yes
2022/10/06,16:20,0.162,0.150,0.231,0.221,0.223,0.134,0.091,northwest,5.3,Yes
2022/10/06,16:30,0.163,0.149,0.230,0.221,0.223,0.133,0.091,northwest,5.3,Yes
2022/10/06,16:40,0.163,0.148,0.229,0.221,0.223,0.132,0.091,northwest,4.8,Yes
2022/10/06,16:50,0.163,0.148,0.231,0.221,0.222,0.133,0.091,north-northwest,5.5,Yes
2022/10/06,17:00,0.163,0.148,0.229,0.220,0.222,0.134,0.090,northwest,5.1,Yes
2022/10/06,17:10,0.162,0.147,0.230,0.222,0.224,0.133,0.090,north-northwest,5.2,Yes
2022/10/06,17:20,0.161,0.148,0.229,0.220,0.220,0.131,0.089,northwest,5.5,Yes
2022/10/06,17:30,0.163,0.147,0.229,0.219,0.223,0.131,0.090,northwest,6.0,Yes
2022/10/06,17:40,0.161,0.147,0.228,0.220,0.222,0.129,0.088,northwest,5.6,Yes
2022/10/06,17:50,0.159,0.144,0.227,0.218,0.220,0.129,0.087,northwest,5.6,Yes
2022/10/06,18:00,0.157,0.142,0.226,0.216,0.220,0.128,0.085,northwest,5.8,No
2022/10/06,18:10,0.156,0.142,0.222,0.216,0.217,0.126,0.084,northwest,5.9,No
2022/10/06,18:20,0.156,0.139,0.221,0.212,0.216,0.125,0.082,north-northwest,5.5,No
2022/10/06,18:30,0.153,0.138,0.221,0.211,0.216,0.122,0.081,northwest,5.1,No
2022/10/06,18:40,0.153,0.138,0.220,0.211,0.214,0.121,0.080,northwest,5.4,No
2022/10/06,18:50,0.152,0.136,0.220,0.210,0.214,0.121,0.079,northwest,5.8,No
2022/10/06,19:00,0.151,0.137,0.218,0.210,0.213,0.121,0.079,northwest,5.8,No
2022/10/06,19:10,0.151,0.136,0.217,0.209,0.213,0.119,0.078,northwest,6.0,No
2022/10/06,19:20,0.151,0.136,0.217,0.209,0.211,0.119,0.077,northwest,5.9,No
2022/10/06,19:30,0.150,0.136,0.217,0.209,0.212,0.118,0.077,northwest,6.1,No
2022/10/06,19:40,0.151,0.135,0.216,0.208,0.212,0.118,0.077,northwest,6.3,No
2022/10/06,19:50,0.150,0.134,0.218,0.208,0.210,0.118,0.077,northwest,5.9,No
2022/10/06,20:00,0.150,0.134,0.217,0.208,0.212,0.119,0.078,northwest,5.8,No
2022/10/06,20:10,0.149,0.135,0.216,0.208,0.211,0.119,0.077,northwest,6.4,No
2022/10/06,20:20,0.150,0.135,0.218,0.209,0.211,0.119,0.077,northwest,5.7,No
2022/10/06,20:30,0.151,0.135,0.215,0.208,0.212,0.120,0.077,north-northwest,4.8,No
2022/10/06,20:40,0.150,0.135,0.217,0.208,0.211,0.119,0.077,north-northwest,5.2,No
2022/10/06,20:50,0.149,0.135,0.216,0.208,0.211,0.118,0.076,northwest,5.4,No
2022/10/06,21:00,0.150,0.134,0.217,0.210,0.212,0.118,0.077,northwest,5.6,No
2022/10/06,21:10,0.150,0.134,0.215,0.209,0.211,0.119,0.076,northwest,6.7,No
2022/10/06,21:20,0.149,0.135,0.217,0.209,0.211,0.119,0.076,northwest,6.5,No
2022/10/06,21:30,0.150,0.135,0.217,0.208,0.212,0.119,0.076,northwest,6.0,No
2022/10/06,21:40,0.149,0.135,0.216,0.208,0.211,0.119,0.076,northwest,5.9,No
2022/10/06,21:50,0.150,0.134,0.216,0.209,0.212,0.119,0.076,northwest,6.0,No
2022/10/06,22:00,0.151,0.135,0.217,0.209,0.212,0.119,0.076,northwest,5.9,No
2022/10/06,22:10,0.150,0.135,0.216,0.207,0.211,0.119,0.076,northwest,6.2,No
2022/10/06,22:20,0.149,0.135,0.216,0.208,0.212,0.118,0.077,northwest,6.0,No
2022/10/06,22:30,0.151,0.134,0.217,0.208,0.210,0.119,0.075,northwest,5.7,No
2022/10/06,22:40,0.149,0.135,0.218,0.208,0.211,0.118,0.077,northwest,6.0,No
2022/10/06,22:50,0.149,0.135,0.217,0.208,0.211,0.119,0.076,northwest,6.2,No
2022/10/06,23:00,0.150,0.135,0.217,0.208,0.210,0.119,0.075,northwest,6.7,No
2022/10/06,23:10,0.149,0.134,0.217,0.208,0.211,0.119,0.077,northwest,5.9,No
2022/10/06,23:20,0.151,0.136,0.216,0.208,0.212,0.119,0.076,northwest,7.0,No
2022/10/06,23:30,0.150,0.135,0.217,0.209,0.211,0.119,0.076,northwest,6.6,No
2022/10/06,23:40,0.150,0.135,0.217,0.208,0.211,0.118,0.077,northwest,6.6,No
2022/10/06,23:50,0.150,0.134,0.217,0.209,0.211,0.118,0.077,north-northwest,6.0,No
